Location: Alafon
(8.4500°N, 4.2333°E)
Time: 01:25:19
(UTC+00:00)

Hubble Space Telescope - Pass Details

Date: 05 July 2020
Orbit: 536 x 540 km, 28.5° (Epoch: 06 August)

Event Time Altitude Azimuth Distance (km) Brightness Sun altitude
Rises 20:40:07 0° 274° (W) 2,668 5.1 -34.5°
Reaches altitude 10° 20:42:58 10° 294° (WNW) 1,778 4.2 -35.1°
Enters shadow 20:43:56 14° 306° (NW) 1,556 3.8 -35.3°
